Weather in Chertkovo

Russia / Vladimir Oblast     55°55′57″N   42°00′58″E
В апреле 2022 года жителям России запретили посещать сайт meteo.paraplan.net по решению Генеральной прокуратуры. Аудитория сайта уменьшилась в 10 раз. Владельцы сайта не видят смысла в поддержке погодного сервера в таких условиях. Сайт будет закрыт в октябре.
temp.,
°C
wind,
m/s
gust,
m/s
humid.,
%
clouds,
%
prec.,
mm/h
press.,
hPa
HPBL,
m
25 september, sun
sun2500:00+9sse7128899 0.3 1002966
03:00+9sse61089100 0.6 1003812
06:00+8se61189100 0.1 1003678
09:00+10se597949 0.1 1003851
12:00+10se4778100 0.3 1004796
15:00+10s257998 0.7 1004455
18:00+8ssw118836 0.0 100410
21:00+7nw229151 0.0 100420
26 september, mon
mon2600:00+7wnw2491100 0.0 100493
03:00+8wnw3791100 0.0 1003227
06:00+7wnw3894100 0.3 1004268
09:00+9wnw4788100 0.5 1004456
12:00+9wsw4788100 0.8 1006567
15:00+9wsw5991100 4.4 10071160
18:00+8wsw4992100 2.4 1008760
21:00+8sw4994100 4.4 1009505
27 september, tue
tue2700:00+8ssw3794100 0.8 1010294
03:00+8ssw3693100 0.9 1011256
06:00+7sse3594100 0.1 1012177
09:00+7sse259298 0.1 1014199
12:00+11sse357064 0.4 1014978
15:00+12se346463 0.6 10141041
18:00+8e228019 0.1 101519
21:00+8e378182 0.1 1015163
28 september, wed
wed2800:00+7e3784100 0.0 1014173
03:00+7ene41190100 0.0 1014328
06:00+7ene61488100 0.0 1013531
09:00+7e61490100 0.8 1011686
12:00+8e71595100 4.3 1010689
15:00+8e71495100 7.4 1009667
18:00+9e71496100 5.0 1008640
21:00+9e71496100 7.8 1007541
29 september, thu
thu2900:00+9e61496100 4.8 1006816
03:00+9ese61296100 6.9 1006595
06:00+10ese51097100 1.3 1007461
09:00+10ese4897100 1.4 1008400
12:00+11se3696100 0.1 1010345
15:00+12ese3596100 0.2 1013290
18:00+11ese3597100 0.1 1015233
21:00+10e2597100 0.1 1017200